DELTA 4 R/B, 40535

Orbit data source: Space-Track

DELTA 4 R/B, 40535 is space debris in MEO originally from a launch on Wed, 25 Mar 2015 UTC launched from the Air Force Eastern Test Range (AFETR). Debris objects in space refer to the collection of defunct objects orbiting the Earth. Examples of debris include non-operational satellites, rocket bodies, and fragments generated from explosions, collisions, or faulty payload assembly.

Loading next visibility...
DELTA 4 R/B details
Identifier
40535, 2015-013B
Orbit
MEO
Last TLE update1 day ago
Origin
Flag of USULA (US)
ManufacturerULA Decatur
Mission2))"
Bus & MotorDCSS-4, RL10B-2
Mass2,850 kg wet, 2,850 kg dry
Launch date (UTC)
2015-03-25 (10 years ago)
Launch vehicleUnknown
Launch site
Air Force Eastern Test Range (AFETR)
Object type
Payload
Rocket body
Debris
Shape & HBRCyl + 1 Nozzle, Unknown HBR
Radar Cross Section43.982 m², Large (>1 m²)

Expand to show TLE details & history

TLE from 1 day ago
0 DELTA 4 R/B
1 40535U 15013B   24347.10281867  .00000031  00000-0  00000-0 0  9994
2 40535  52.8214 237.4033 0034082  57.6430 302.7591  1.92974522 68502
Epoch: 2024-12-12T02:28Z
Definitive object data (Epoch: 2024-12-12T02:28:03.533Z)
Latitude-0.00003°
Longitude119.10342°
Altitude20,824.275 km
Speed3.832 km/s
True Right ascension15h 49m 37s
True Declination0° 00' 00"
Sunlit
Object was in daylight at TLE epoch
Visualization TLE readout
Latitude15.77762°
Longitude-73.29072°
Altitude20,893.51 km
Speed3.822 km/s
Apparent Right ascension02h 18m 24s
Apparent Declination7° 43' 15"
Sunlit
Object is in daylight
Visualization observer readout
Local Sidereal Time07:20:20
Azimuth266.638° W
Elevation16.065°
Doppler factor1
Orbital elements
Apogee altitude20,967.057 km
Perigee altitude20,781.294 km
Semi-major axis27,252.312 km
Eccentricity0.0034082
Inclination52.8214°
RAAN237.4033°
Arg. of periapsis57.643°
True anomaly302.42991°
Mean anomaly302.7591°
Eccentric anomaly302.59458°
Mean motion0.48243 °/min
BSTARUnknown
Orbital period746.22 mins
Loading maneuver chart data...
Loading historical data...
Loading historical data...
Loading historical data...
Loading historical data...
Loading historical data...
Loading historical data...
Loading historical data...

DELTA 4 R/B Visibility forecast

Observer location: undefined°, undefined

Span
Click to sort rows by Start time (UTC) header in descending order
Start Az.
Max El. time (UTC)
Max El. Az.
Max El.
End time (UTC)
End Az.
27 mins2024-12-13 08:50:40.079Z266.613° W2024-12-13 08:50:40.079Z266.613° W15.459°2024-12-13 09:17:40.079Z256.812° W
309 mins2024-12-13 14:43:40.079Z160.756° S2024-12-13 17:17:40.079Z94.484° ESE40.203°2024-12-13 19:52:40.079Z51.658° ENE
47 mins2024-12-14 08:03:40.079Z313.252° NW2024-12-14 08:33:40.079Z301.963° NW11.634°2024-12-14 08:50:40.079Z295.3° NW
|